Weather History for KFLG - December, 2012

Change the Weather History Date:

Wednesday, December 12, 2012

  Actual Average Record
Temperature  
Mean Temperature 30 °F 30 °F  
Max Temperature 44 °F 43 °F 64 °F (1921)
Min Temperature 16 °F 17 °F -16 °F (1961)
Degree Days  
Heating Degree Days 35 35  
Month to date heating degree days 335 413  
Since 1 July heating degree days 1778 2145  
Cooling Degree Days 0 0  
Month to date cooling degree days 0 0  
Year to date cooling degree days 164 117  
Moisture  
Dew Point 9 °F    
Average Humidity 49    
Maximum Humidity 74    
Minimum Humidity 24    
Precipitation  
Precipitation 0.00 in 0.06 in 0.88 in (1937)
Month to date precipitation 0.00 0.68  
Year to date precipitation 12.81 20.67  
Snow  
Snow 0.00 in 0.60 in 14.00 in (1932)
Month to date snowfall 0.0 6.2  
Since 1 July snowfall 1.1 18.4  
Snow Depth 0.00 in    
Sea Level Pressure  
Sea Level Pressure 30.01 in    
Wind  
Wind Speed 6 mph (SW)    
Max Wind Speed 25 mph    
Max Gust Speed 30 mph    
Visibility 10 miles    
Events      
T = Trace of Precipitation, MM = Missing Value Source: NWS Daily Summary

Daily Weather History Graph

Daily Weather History Graph

Search for Another Location

Airport or City:

Trip Planner

Search our weather history database for the weather conditions in past years. The results will help you decide how hot, cold, wet, or windy it might be!

Date:

Astronomy

Dec. 12, 2012 Rise Set
Actual Time 7:26 AM MST 5:15 PM MST
Civil Twilight 6:57 AM MST 5:43 PM MST
Nautical Twilight 6:26 AM MST 6:15 PM MST
Astronomical Twilight 5:55 AM MST 6:46 PM MST
Moon 6:35 AM MST (12/12) 4:55 PM MST (12/12)
Length of Visible Light 10h 45m
Length of Day
9h 49m
Waning Crescent, 0% of the Moon is Illuminated
Dec 12
Waning Crescent
Dec 13
New
Dec 19
First Quarter
Dec 28
Full
Jan 4
Last Quarter

Hourly Weather History & Observations

Time (MST) Temp. Windchill Dew Point Humidity Pressure Visibility Wind Dir Wind Speed Gust Speed Precip Events Conditions
12:57 AM 19.9 °F - 9.0 °F 62% 30.04 in 10.0 mi Calm Calm - N/A   Clear
1:57 AM 18.0 °F - 9.0 °F 68% 30.02 in 10.0 mi Calm Calm - N/A   Clear
2:57 AM 17.1 °F - 8.1 °F 68% 30.00 in 10.0 mi Calm Calm - N/A   Clear
3:57 AM 17.1 °F 11.7 °F 9.0 °F 71% 30.01 in 10.0 mi SW 3.5 mph - N/A   Clear
4:57 AM 19.0 °F - 10.0 °F 68% 30.01 in 10.0 mi Calm Calm - N/A   Clear
5:57 AM 17.1 °F 11.7 °F 9.0 °F 71% 30.04 in 10.0 mi SW 3.5 mph - N/A   Clear
6:57 AM 18.0 °F 12.7 °F 10.0 °F 71% 30.09 in 10.0 mi SW 3.5 mph - N/A   Clear
7:57 AM 21.9 °F - 10.9 °F 63% 30.09 in 10.0 mi Calm Calm - N/A   Clear
8:57 AM 33.1 °F 26.1 °F 12.0 °F 42% 30.05 in 10.0 mi WSW 8.1 mph - N/A   Clear
9:57 AM 39.9 °F 31.8 °F 10.0 °F 29% 30.04 in 10.0 mi SW 15.0 mph - N/A   Clear
10:57 AM 43.0 °F 34.8 °F 9.0 °F 25% 30.03 in 10.0 mi SSW 18.4 mph 26.5 mph N/A   Clear
11:57 AM 42.1 °F 34.5 °F 9.0 °F 26% 30.02 in 10.0 mi SSW 15.0 mph - N/A   Clear
12:57 PM 43.0 °F 34.5 °F 9.0 °F 25% 29.98 in 10.0 mi SW 19.6 mph - N/A   Clear
1:57 PM 43.0 °F 35.7 °F 10.0 °F 26% 29.98 in 10.0 mi SW 15.0 mph 29.9 mph N/A   Clear
2:57 PM 43.0 °F 35.1 °F 9.0 °F 25% 29.98 in 10.0 mi SSW 17.3 mph 25.3 mph N/A   Clear
3:57 PM 42.1 °F 34.5 °F 9.0 °F 26% 29.97 in 10.0 mi SW 15.0 mph 21.9 mph N/A   Clear
4:57 PM 39.9 °F 33.4 °F 9.0 °F 28% 29.96 in 10.0 mi SW 10.4 mph - N/A   Clear
5:57 PM 36.0 °F 29.6 °F 9.0 °F 33% 30.00 in 10.0 mi SW 8.1 mph - N/A   Clear
6:57 PM 30.9 °F - 8.1 °F 38% 30.03 in 10.0 mi Calm Calm - N/A   Clear
7:57 PM 28.0 °F - 8.1 °F 43% 30.04 in 10.0 mi Calm Calm - N/A   Clear
8:57 PM 26.1 °F - 7.0 °F 44% 29.99 in 10.0 mi Calm Calm - N/A   Clear
9:57 PM 23.0 °F - 7.0 °F 50% 29.96 in 10.0 mi Calm Calm - N/A   Clear
10:57 PM 21.0 °F - 7.0 °F 55% 29.97 in 10.0 mi Calm Calm - N/A   Clear
11:57 PM 19.9 °F - 5.0 °F 52% 29.98 in 10.0 mi Calm Calm - N/A   Clear